sat.trackr.live / text

‹ back to catalog

GAOFEN-14 02

NORAD 66175 · 2025-242A

PAYLOAD ACTIVE UNKNOWN

§ Identity

Operator
Country
PRC
Launch date
2025-10-26
Launch site
XICLF
Launch vehicle
Mass (kg)
RCS (m²)

External: N2YO · Heavens-Above · Gunter

§ Orbital elements

Epoch: 2026-05-25T05:23:51.417888Z

Period
94.40 min
Inclination
97.4125°
Eccentricity
0.0002393
Mean motion
15.25426697 rev/d
Perigee alt
487.9 km
Apogee alt
491.1 km
Semi-major
6,867.6 km
B*
2.3358e-4
RAAN
221.0005°
Arg perigee
99.1787°
Mean anomaly
260.9722°
Rev number
3,219

§ Raw data

GAOFEN-14 021 66175U 25242A   26145.22490067  .00005831  00000+0  23358-3 0  99982 66175  97.4125 221.0005 0002393  99.1787 260.9722 15.25426697 32193

JSON: /api/v1/satellites/66175 · /tle

For live sub-satellite position, see the globe view (requires WebGL).

§ Visibility from observer

Set your observer location to see the next 7 days of passes ≥ 10°. The values pass through the URL so the page stays shareable.

No JS? Fill the form by hand. The geolocation button needs JavaScript.